Starlink 31027

operational
NORAD ID: 58720 Int'l Des: 2024-002 Owner: SPXS Country: US Constellation: starlink
LEOCIRCULAR

About Starlink 31027

Description loading...

Live Position

Loading 3D Globe...

Upcoming Passes

Altitude History

Altitude vs Time

uPlot chart will show altitude changes over time

Two-Line Element Set

1 58720U 24002R 25258.21393325 .00013935 00000-0 46179-3 0 9991
2 58720 53.1592 324.6875 0000957 108.1459 251.9647 15.31572278 95158
Epoch: Sep 15, 2025 • Age: 15 hours

Current Status

Altitude 476.7 km
Velocity 7.63 km/s
Sub-Earth Point 52.03°N, 139.17°E
Launch Date Jan 3, 2024
Age 1.7 years
Type internet

Technical Details

Classification Payload
Mass 730.00 kg
Dry Mass 700.00 kg
Total Mass 730.00 kg
Length 0.30 m
Diameter 4.10 m
Span 29.00 m
Shape Box + pan
Manufacturer SPXS
Bus Type Starlink V2M
Phase Status In Orbit
Owner/State SPXS/US

Large Constellations

Loading constellations...